User: anonymous   Login
Location: Wildcat Hills Observatory
(41.6350°N, 103.6812°W)
Time: 01:59:19
(UTC-06:00)
Language:

Cosmos 1634 Rocket - Orbit

View from above orbital plane
View from above orbital plane
View from above satellite
View from above satellite

Ground track
Ground track

The orbit data is extracted from the following two-line orbital elements,

1 15598U 85022B   17228.57473080 -.00000050 +00000-0 -65998-4 0  9997
2 15598 082.9342 062.2188 0021023 302.3992 082.2413 13.76563377628533
Epoch (UTC): 16 August 2017 13:47:36
Eccentricity: 0.0021023
inclination: 82.9342°
perigee height: 960 km
apogee height: 991 km
right ascension of ascending node: 62.2188°
argument of perigee: 302.3992°
revolutions per day: 13.76563377
mean anomaly at epoch: 82.2413°
orbit number at epoch: 62853

The dashed part of the orbit path shows where the satellite is in the earth's shadow,  

DLR